Theta_e
298 298 297 297 296 296 297 297 297 297 297 296 297 297 296 294 293 293 290 289 289 289 289 289 290 289 289 289 289 289 288 288 287 287 287 285 284 283 282 282 282 281 281 280 279 279 279 279 278 278 279 279 279 279 280 280 280 280 279 279 279 279 278 275 274 275 276 277 277 277 277 277 276 276 275 276 276 278 280 277 278 277 277 276 276
298 297 297 297 296 295 294 294 295 295 295 293 294 294 293 291 290 289 289 288 289 289 289 289 289 288 288 288 288 287 287 287 286 286 286 284 282 283 282 281 280 279 279 279 278 279 278 278 278 277 278 278 278 279 279 279 279 278 279 278 278 277 277 276 274 274 274 275 276 276 276 276 273 276 275 275 276 277 276 277 277 277 277 275 275
297 296 296 295 295 294 293 292 292 292 292 291 291 291 291 289 289 289 289 287 288 288 288 288 288 288 287 287 286 286 286 286 285 285 285 284 282 281 281 280 279 279 278 278 278 278 278 278 277 278 279 278 278 278 278 278 278 278 278 278 278 278 277 276 275 275 275 274 275 276 276 276 275 275 276 276 276 277 276 276 277 278 278 276 276
297 296 295 294 293 293 292 291 291 291 292 291 290 289 289 289 289 289 288 287 287 287 287 287 287 287 286 286 286 285 285 285 284 284 283 282 282 280 279 279 279 279 278 278 278 277 277 277 277 277 278 277 277 277 278 278 278 278 278 278 278 277 277 276 277 276 276 275 276 275 276 275 275 275 276 277 276 276 276 276 276 276 276 278 276
296 295 293 292 292 292 291 291 291 290 291 290 290 289 288 288 288 289 288 286 286 286 286 286 286 286 286 285 285 285 285 284 284 283 282 281 281 280 279 278 278 278 278 278 279 277 277 277 277 277 278 277 277 277 278 278 278 278 278 278 278 278 278 278 277 277 277 276 276 276 276 275 275 275 276 275 275 275 275 275 275 275 275 276 277
295 293 292 292 291 291 291 291 291 290 289 289 289 289 287 287 287 288 288 287 286 286 286 285 285 285 285 285 285 284 284 284 283 283 281 280 279 279 279 278 278 278 278 278 277 277 277 277 277 278 278 278 277 277 278 278 278 278 278 278 278 278 277 277 277 277 277 276 276 276 276 275 275 275 275 275 275 275 274 274 274 274 275 275 275
293 293 292 291 291 291 291 291 291 290 289 289 289 288 287 287 287 287 286 286 286 285 285 285 285 285 284 284 284 284 283 283 283 282 281 279 279 279 278 278 277 278 278 277 277 277 277 277 277 278 278 278 278 278 278 278 278 278 278 278 277 277 277 277 277 276 276 276 276 276 276 276 276 274 275 276 276 275 274 273 273 275 274 273 273
293 292 292 291 291 291 291 291 290 290 288 287 287 287 287 286 286 286 286 286 285 285 285 285 284 284 284 284 283 283 283 282 282 282 281 280 280 279 278 278 278 278 277 277 277 277 277 278 278 279 279 279 279 279 279 278 278 278 278 278 277 277 276 276 276 276 276 276 276 275 276 276 275 275 275 275 274 274 275 274 272 272 273 273 273
293 292 291 291 291 291 290 290 289 288 287 286 286 286 286 286 285 285 285 285 285 285 284 284 283 283 283 283 283 283 282 282 282 281 280 279 279 279 279 279 278 277 277 276 277 278 278 278 279 279 280 281 282 281 281 281 278 278 277 278 277 276 276 277 277 277 276 276 276 277 275 275 275 275 274 274 274 274 274 273 272 272 273 272 273
292 291 291 292 291 290 289 288 288 287 286 285 285 285 285 285 285 285 285 285 285 284 284 284 283 283 282 282 282 282 282 282 283 285 284 281 280 279 279 278 277 276 276 277 277 278 278 278 279 281 282 282 282 282 282 282 282 280 278 278 278 278 277 276 277 277 276 276 276 276 275 275 275 275 275 275 276 274 273 273 272 272 271 271 272
292 291 292 291 290 289 288 287 287 286 286 285 284 284 284 285 285 285 285 285 284 284 284 283 283 283 282 282 281 282 282 282 285 287 287 286 280 279 278 277 277 277 277 277 277 277 278 279 280 281 281 282 281 283 283 283 282 283 283 282 281 278 277 277 276 277 276 275 276 276 275 275 275 276 276 276 275 274 273 272 272 271 270 267 268
292 292 291 290 289 289 288 286 286 285 285 285 284 283 283 284 284 284 284 284 284 284 283 283 283 282 282 282 281 281 281 284 287 287 288 286 284 280 279 277 277 277 277 277 277 277 278 278 279 280 280 280 280 281 281 282 282 283 283 283 282 283 282 279 277 276 276 275 275 275 275 275 275 276 275 275 274 273 273 272 272 271 269 269 269
292 291 290 289 289 288 287 286 285 285 285 284 283 283 283 284 284 284 283 284 284 283 283 282 282 282 282 281 281 281 281 285 288 288 289 287 285 282 278 278 277 277 277 277 277 278 278 278 278 278 279 280 279 279 279 280 282 282 282 282 282 283 283 283 283 279 278 276 275 274 275 276 275 276 276 275 276 273 272 271 271 271 270 270 269
292 291 290 289 288 287 287 286 285 285 284 284 283 282 283 284 284 284 284 284 283 283 283 283 283 282 282 281 281 281 280 284 288 289 288 287 286 282 278 278 278 278 278 278 278 278 278 278 277 277 278 279 279 278 278 278 279 279 280 279 279 280 282 283 283 283 280 277 276 275 276 277 276 276 276 278 275 273 272 271 270 269 269 270 269
291 290 289 288 288 287 286 286 286 284 284 283 283 282 282 282 283 284 284 283 283 283 283 282 282 282 282 282 281 280 279 286 289 289 289 287 286 283 278 278 277 277 278 278 279 279 279 279 279 278 278 278 279 278 278 278 277 278 278 278 278 278 278 279 280 280 280 279 277 276 276 277 277 276 276 276 276 275 273 271 270 269 267 268 268
290 289 288 287 287 287 286 285 285 284 283 283 282 282 282 282 282 284 284 283 283 283 283 283 282 282 282 282 281 280 280 286 288 289 288 287 286 280 278 277 277 278 278 279 280 280 280 280 279 278 278 278 280 281 280 278 277 276 276 277 277 278 278 280 281 281 280 280 279 278 277 277 279 278 277 275 274 273 272 269 268 267 267 265 267
289 289 288 287 287 286 286 285 285 284 283 282 282 282 282 282 283 283 283 283 282 282 282 282 282 282 281 281 281 280 280 285 288 288 288 288 285 279 279 278 278 278 278 280 280 280 280 280 280 279 279 278 281 283 282 280 277 276 276 276 277 277 277 279 282 283 283 283 283 283 283 282 282 283 283 283 278 274 269 266 268 266 265 265 266
289 288 288 288 287 286 285 285 284 283 283 282 282 282 282 282 283 283 283 282 282 282 282 281 282 281 281 280 281 280 279 284 287 288 287 287 283 279 279 279 278 278 279 279 279 279 280 280 280 280 279 279 282 284 284 281 277 277 276 276 275 275 276 278 279 280 283 284 284 284 284 283 283 283 283 284 283 278 270 269 268 267 266 266 265
287 288 287 286 285 285 285 285 284 283 283 282 282 281 281 281 282 283 283 282 282 282 281 281 280 280 280 280 281 280 279 282 287 287 287 287 282 280 279 279 278 278 278 278 278 278 279 281 281 281 280 280 283 284 285 282 278 277 277 276 276 275 276 277 277 277 277 278 278 280 280 282 282 281 281 284 284 281 275 272 271 269 267 267 267
286 284 284 284 284 284 285 285 284 283 282 281 281 281 281 281 281 282 282 282 281 281 280 280 279 279 279 279 280 280 279 280 285 287 287 287 284 280 279 278 278 278 278 278 277 278 278 279 281 283 283 283 284 285 285 285 280 278 278 277 276 275 278 277 277 277 276 276 276 275 275 276 277 278 278 278 280 280 280 278 275 272 271 270 269
285 285 285 284 284 284 284 284 283 282 282 281 281 281 281 281 281 281 281 281 280 280 279 279 279 278 278 278 279 279 279 279 283 287 287 287 284 281 279 279 279 279 279 279 278 278 278 278 278 282 284 284 284 285 285 285 284 280 279 278 278 279 279 275 276 278 275 275 274 274 273 272 273 274 275 275 276 276 277 279 277 275 272 270 269
284 284 284 283 283 283 283 282 283 282 281 281 280 279 279 280 281 281 280 280 279 279 279 278 278 277 277 278 278 278 279 280 281 286 287 287 285 283 279 280 280 280 279 279 280 279 279 279 278 280 283 285 284 285 285 285 285 283 281 282 283 282 281 279 276 275 275 274 274 273 272 272 271 271 272 273 273 274 274 275 277 276 275 273 270
283 283 282 283 282 282 282 282 282 281 281 281 280 279 279 279 280 280 280 279 279 278 278 278 277 276 276 277 277 277 278 279 282 284 286 287 286 284 283 282 284 281 280 280 280 281 281 280 280 281 282 284 285 285 286 286 285 284 285 285 284 284 283 281 278 275 274 274 274 273 273 272 272 272 271 271 272 272 272 273 275 275 274 274 273
283 283 283 282 281 281 281 281 281 281 281 280 280 279 279 279 279 280 279 279 278 277 277 277 276 276 275 276 276 277 277 277 281 283 285 286 286 285 284 283 284 282 282 281 282 282 281 281 281 283 283 283 284 285 286 286 284 285 286 285 285 284 283 281 279 277 276 275 274 274 274 274 273 273 273 273 272 272 273 273 273 274 274 273 273
283 282 281 281 281 281 281 281 281 280 280 280 279 279 278 279 278 279 279 278 278 277 276 276 276 276 276 275 275 276 277 277 277 281 284 285 287 286 284 284 285 285 282 283 283 283 283 284 284 284 284 284 284 285 284 285 285 285 285 285 284 283 282 281 280 278 276 275 275 275 275 275 275 275 275 275 274 273 272 272 273 272 272 272 272
282 281 281 281 281 281 281 281 281 281 281 281 280 280 279 279 278 278 278 278 277 277 276 276 276 276 276 276 276 276 276 276 277 278 281 283 285 286 285 284 284 285 284 283 284 285 285 285 285 285 284 284 283 282 282 282 284 284 284 284 283 283 282 281 280 279 277 276 276 276 276 276 276 276 275 274 273 271 271 271 270 270 270 268 268
283 282 282 282 281 282 282 281 281 281 281 281 280 280 279 279 278 278 278 277 277 277 277 276 276 276 276 276 276 276 275 276 276 277 279 281 283 284 284 284 284 284 284 283 284 284 284 284 284 285 284 284 284 283 283 283 282 282 282 282 282 282 282 281 280 279 279 278 278 278 277 277 276 274 273 272 271 272 272 270 270 269 268 267 266
283 282 282 282 282 282 282 280 280 280 280 280 279 278 278 278 278 277 278 278 277 277 277 277 277 277 276 277 276 276 275 276 276 276 278 280 281 282 284 284 284 283 283 283 283 284 283 284 284 284 284 283 283 282 282 282 281 281 280 280 280 281 281 281 281 280 279 279 279 278 277 274 272 272 272 271 271 270 270 269 269 268 268 266 265
283 282 282 282 281 281 281 280 280 280 279 279 279 279 278 278 278 278 279 280 279 278 278 278 278 278 278 278 277 276 276 275 276 279 278 280 280 280 281 282 284 284 284 285 284 284 283 283 282 282 282 281 281 281 281 281 280 280 280 279 279 279 278 278 278 278 278 278 277 277 277 275 273 271 270 270 269 269 269 268 268 267 267 266 263
282 281 281 281 280 280 280 279 279 279 279 278 278 277 279 281 280 279 279 282 282 282 282 279 279 279 279 279 280 278 277 278 280 281 280 281 282 283 283 283 284 283 284 286 284 281 281 280 280 280 280 280 279 279 279 279 279 278 278 279 279 278 277 277 277 277 277 277 277 276 276 275 273 271 269 269 269 268 268 268 266 267 264 265 264
281 281 281 280 280 280 280 279 279 279 279 278 278 277 277 280 283 283 282 282 283 283 283 283 283 282 281 279 281 283 282 283 282 282 281 281 282 283 283 283 284 284 284 283 281 280 279 278 278 278 277 277 277 278 278 277 277 277 276 276 277 277 277 276 277 277 276 276 276 275 275 274 273 272 269 268 268 267 266 266 265 265 264 264 264
281 280 280 280 280 280 279 279 279 278 278 278 278 278 278 277 278 283 284 283 283 283 284 284 284 283 283 282 281 281 283 284 284 283 283 282 282 282 283 283 283 284 283 283 278 277 277 277 276 275 274 273 275 274 273 273 274 274 272 272 274 275 275 275 276 276 276 275 275 274 274 274 273 272 271 268 267 266 265 264 264 263 263 264 263
281 280 280 280 280 279 279 279 279 279 278 278 277 278 278 278 277 277 280 284 284 284 284 284 284 284 284 284 283 282 283 284 285 284 283 283 283 283 283 283 283 283 283 280 277 275 274 274 273 272 272 273 272 271 271 271 272 271 271 271 271 271 273 274 276 275 275 275 274 274 273 273 272 271 270 268 267 265 265 264 264 263 263 262 262
282 281 280 280 279 279 279 279 279 278 278 278 278 278 278 278 278 277 276 276 278 280 282 283 283 283 283 283 282 283 283 283 284 284 284 283 283 283 283 282 283 284 282 278 277 274 272 271 271 271 271 271 270 270 270 270 270 271 271 271 270 270 271 273 274 274 274 274 274 273 272 272 271 270 269 268 267 266 265 265 264 263 262 262 261
281 277 277 278 280 279 279 279 278 278 278 278 277 277 277 276 276 275 275 275 275 275 274 276 281 283 281 281 282 282 282 282 283 283 283 283 283 283 283 279 278 279 279 277 275 273 272 272 271 271 271 270 270 270 271 268 269 269 270 270 270 271 272 273 273 273 273 273 272 272 271 271 270 269 268 267 266 265 264 264 264 263 262 262 261
280 279 278 278 279 279 278 278 278 278 278 278 277 277 275 275 274 274 273 273 273 272 270 271 272 280 282 281 282 282 282 281 282 282 282 282 282 282 276 274 274 275 276 276 275 275 274 274 274 273 273 273 273 272 272 272 271 271 270 272 273 273 273 273 273 272 272 272 271 271 271 270 269 268 268 267 266 265 265 264 264 263 263 262 261
280 278 278 279 279 278 277 277 278 278 278 276 275 275 274 274 273 274 273 273 272 271 272 268 271 272 276 275 278 281 282 281 281 281 281 281 282 280 274 274 274 274 275 276 277 277 276 276 276 276 276 276 276 276 276 275 275 275 275 275 275 275 274 273 273 272 272 271 270 270 270 269 269 268 267 266 266 265 264 264 263 262 262 262 263
280 280 280 280 280 279 278 277 276 277 276 275 275 275 274 273 273 273 273 272 272 272 270 270 273 273 273 273 276 276 278 281 281 280 280 280 279 277 275 275 275 275 275 276 276 277 277 277 277 277 277 277 276 277 276 276 276 276 275 275 275 275 275 275 274 273 271 270 269 269 268 268 268 267 266 266 265 264 264 263 262 262 263 263 263
279 279 279 279 280 279 278 277 276 276 275 274 274 273 273 272 272 272 272 272 272 271 270 270 271 271 272 272 273 275 276 276 276 276 277 278 278 278 277 277 276 276 276 276 276 276 276 276 277 277 277 277 276 276 276 276 276 275 275 275 274 274 274 274 273 272 271 269 268 267 267 266 266 265 266 265 265 264 264 263 262 262 262 262 262
278 278 278 278 278 277 276 275 275 274 274 274 273 273 272 272 272 272 271 271 271 270 270 270 270 270 270 271 272 274 274 274 275 275 275 276 276 277 278 277 277 277 277 277 277 277 276 276 277 276 276 276 276 276 276 276 276 275 275 274 274 273 273 273 273 272 270 269 266 264 263 263 263 264 265 265 265 265 264 263 263 263 263 262 262
276 276 274 277 276 275 273 273 274 274 273 273 273 273 273 272 271 271 271 271 270 269 269 269 269 267 268 270 274 275 273 273 273 274 274 275 275 275 276 277 277 277 277 277 277 277 277 277 276 276 275 274 273 273 273 273 273 273 273 273 273 273 273 272 272 271 270 268 267 265 264 264 264 265 264 264 265 264 263 263 262 262 262 262 261
275 274 275 275 274 274 273 273 273 271 271 271 272 272 271 270 270 270 270 270 269 269 269 268 266 264 268 272 274 275 271 267 269 270 270 270 271 272 273 273 272 273 272 273 274 273 272 272 272 272 271 271 270 270 270 270 270 270 270 270 270 270 270 270 270 270 269 268 267 266 265 264 264 264 264 265 263 263 262 261 261 261 260 260 259
273 273 274 273 273 273 273 272 272 272 271 271 270 268 269 270 270 270 270 269 269 268 268 266 263 263 267 273 273 274 267 265 267 267 266 266 265 265 265 264 263 262 262 262 264 266 267 267 267 267 268 268 269 269 269 268 268 268 269 269 269 269 269 268 267 267 266 266 265 263 263 264 264 264 263 263 262 261 261 260 260 259 259 257 257
272 272 271 271 272 271 271 271 271 270 270 269 268 268 268 269 269 269 269 267 266 266 267 265 263 264 264 267 270 268 265 264 263 263 263 263 262 262 261 261 261 261 261 260 260 260 260 260 260 261 261 263 264 265 265 265 264 265 265 264 263 264 263 262 262 261 261 262 263 264 264 263 263 263 262 261 260 260 259 259 258 257 256 255 256
272 271 271 271 271 270 270 270 269 269 268 267 267 267 266 267 267 266 266 266 265 265 265 264 263 263 263 263 264 265 265 263 262 261 261 260 260 259 260 260 260 261 261 260 259 259 258 258 258 259 259 257 257 259 259 258 259 258 258 259 260 262 263 263 263 261 260 261 263 263 263 262 261 261 260 259 259 258 257 257 256 257 257 256 256
272 271 270 270 269 268 268 268 267 267 267 267 266 265 265 265 265 265 265 265 264 264 262 261 261 261 261 261 260 260 260 260 259 259 259 259 259 258 258 259 260 260 260 259 257 257 258 257 257 257 257 256 256 256 256 257 258 257 257 258 260 262 261 260 259 259 260 260 261 261 262 261 260 259 259 257 257 256 256 255 256 256 256 255 255
271 270 269 269 268 267 266 266 266 266 266 265 265 264 264 264 264 262 262 263 262 260 260 259 260 259 259 259 259 259 258 258 258 258 257 257 257 258 259 259 259 258 257 256 255 256 256 256 256 256 256 257 256 256 257 256 255 256 256 257 259 260 261 261 261 261 259 259 260 260 260 260 259 257 258 258 257 257 256 256 256 256 255 255 254
270 269 268 267 267 266 266 266 265 264 265 264 264 263 262 262 261 261 260 260 260 259 259 258 258 257 258 257 258 258 257 257 256 257 256 257 257 257 257 256 256 256 255 255 254 254 254 255 255 255 256 255 256 255 254 254 254 254 254 254 254 254 257 258 256 256 255 255 256 257 258 259 258 258 257 257 257 256 255 255 254 254 254 253 253
268 267 267 266 266 265 265 265 264 264 263 263 262 261 261 260 259 259 259 258 258 257 257 257 257 257 257 257 257 257 257 257 256 256 256 257 257 256 256 256 256 255 255 255 254 254 254 254 254 254 254 254 254 254 254 253 255 254 253 252 255 259 259 257 254 252 255 253 253 253 254 254 256 255 255 254 254 254 255 253 252 253 252 252 252
265 265 265 264 264 264 264 264 263 263 262 261 261 260 259 259 259 258 258 257 257 256 256 256 256 256 256 256 257 257 257 257 257 257 257 257 257 256 256 255 254 253 253 253 253 253 252 252 252 253 253 253 254 254 253 253 253 255 253 253 259 259 259 258 257 257 254 251 252 252 253 253 251 252 252 253 252 252 252 252 252 252 252 251 251
263 263 262 262 262 262 262 262 262 261 260 260 259 259 259 258 258 257 257 256 256 256 256 255 256 256 257 257 257 257 257 258 258 258 257 257 256 256 255 254 254 253 253 253 254 253 253 253 253 254 253 254 254 254 254 254 253 253 256 258 259 259 259 258 255 256 256 254 251 251 253 254 252 252 251 251 250 251 252 252 251 251 251 252 251
Wind_Speed
8 10 10 10 10 9 9 8 8 8 8 7 8 8 8 7 7 6 6 5 6 7 7 8 8 8 7 7 8 9 9 9 8 9 9 8 7 9 9 10 11 9 10 8 7 9 10 10 8 6 6 8 6 6 7 6 6 6 6 6 6 5 5 3 5 4 2 3 4 4 3 4 1 4 3 3 3 3 4 5 5 4 3 2 1
8 7 8 10 11 10 9 7 8 7 8 7 8 7 7 7 6 6 7 6 7 7 7 6 7 7 7 7 7 8 8 9 8 9 10 10 8 7 9 10 11 10 10 10 8 7 10 11 8 7 5 8 7 7 6 6 5 6 5 6 5 5 3 3 3 5 4 1 2 2 3 3 2 3 6 3 3 3 4 4 3 4 4 3 2
6 6 6 8 10 10 9 8 8 8 9 8 8 8 7 6 6 8 7 6 6 7 8 8 8 8 8 7 7 7 9 9 8 9 10 11 11 9 10 11 12 12 11 11 10 9 10 10 9 7 6 8 7 6 5 5 5 6 6 5 6 4 4 3 2 2 6 4 4 5 4 4 4 3 4 4 4 4 4 4 4 4 3 3 4
7 7 6 7 8 9 10 9 9 9 10 8 9 8 7 7 7 7 7 6 7 6 7 8 8 8 8 8 8 8 9 9 9 9 11 11 11 11 10 11 11 12 13 12 12 11 12 11 8 8 8 10 7 6 5 5 5 5 6 5 5 5 3 3 3 2 2 5 3 5 5 6 4 3 4 4 5 4 5 5 4 3 4 4 4
7 8 7 8 8 9 9 10 10 10 10 8 10 9 8 8 8 8 8 7 7 7 6 7 8 9 9 10 10 10 10 11 11 10 9 9 11 11 11 11 11 11 12 12 12 12 11 11 10 9 9 10 7 6 5 6 5 6 5 5 5 4 3 3 2 2 2 3 4 2 4 2 3 3 4 5 4 4 4 5 4 5 4 5 4
7 7 7 8 8 9 9 10 11 11 10 9 10 10 9 9 9 8 9 9 8 8 9 8 9 10 10 10 10 10 10 11 12 12 11 10 9 10 10 11 11 11 10 10 10 10 11 11 10 9 10 10 8 7 6 6 5 6 5 5 5 4 4 2 3 2 2 2 3 2 2 4 2 4 5 5 5 3 3 3 3 3 4 4 5
7 8 8 8 8 9 10 11 10 10 10 10 9 9 9 9 10 10 9 10 10 9 9 9 9 10 10 10 10 11 11 11 11 11 10 10 11 11 11 10 10 9 9 10 10 10 11 10 10 9 10 9 10 8 7 6 6 5 6 5 5 5 4 3 3 2 2 3 3 3 4 3 4 4 2 5 4 4 4 4 4 4 3 3 5
8 8 8 9 10 10 10 9 9 10 9 8 9 9 9 9 9 8 9 10 10 10 10 10 9 9 10 10 10 9 10 10 11 11 11 11 11 11 12 12 12 10 10 9 9 10 11 11 10 9 9 9 9 8 8 7 6 6 5 5 5 5 5 4 4 4 4 4 4 4 3 4 3 2 1 3 2 4 5 5 6 4 5 4 4
9 9 9 10 11 9 8 7 7 8 9 9 9 9 9 9 9 9 9 9 8 9 8 9 9 8 8 9 9 9 10 10 10 12 12 11 11 12 13 13 13 13 11 10 9 10 10 10 9 8 9 10 12 9 8 7 7 6 5 6 6 6 5 4 4 4 3 3 3 3 3 5 4 4 4 5 6 7 3 4 4 3 4 5 5
9 9 10 12 8 7 8 7 8 8 9 10 9 9 9 9 10 9 10 9 9 8 8 8 9 10 9 9 9 8 9 8 12 19 17 14 13 11 11 12 13 13 13 12 10 10 10 9 9 14 15 14 14 14 14 12 9 7 7 7 7 6 6 5 5 5 5 5 5 3 4 6 6 5 6 6 5 3 3 3 4 4 2 4 5
9 10 12 9 8 8 8 8 8 10 9 9 8 9 9 9 9 9 9 10 10 9 9 10 10 9 10 10 11 10 9 9 17 18 14 15 13 13 13 12 12 13 14 14 13 11 9 9 9 12 13 10 12 15 14 14 12 10 9 9 8 8 7 6 6 5 6 5 4 4 5 7 7 5 6 5 3 5 5 4 6 3 3 3 7
11 11 10 8 8 9 8 8 9 9 9 10 9 8 8 8 9 8 8 9 8 7 10 10 10 10 9 9 10 9 9 11 18 19 16 19 14 13 11 11 11 11 12 12 11 11 11 10 9 8 9 10 9 10 11 13 12 10 9 9 11 11 10 8 7 5 6 6 5 7 5 8 6 4 5 3 5 3 5 5 5 5 4 4 4
11 10 9 9 9 9 8 9 9 9 9 9 8 8 9 9 9 9 9 8 7 8 8 9 10 9 10 11 10 10 9 14 18 17 15 18 17 13 11 11 12 11 12 13 13 12 11 10 9 7 7 12 9 9 8 8 11 12 11 10 9 11 12 14 11 8 5 6 7 7 8 7 5 7 5 4 3 5 4 4 5 5 5 5 6
11 11 9 9 9 8 9 9 9 9 8 8 9 9 9 10 9 8 7 7 8 7 7 8 7 7 9 10 10 9 8 12 13 14 16 15 18 14 10 12 12 13 13 12 12 12 12 12 11 9 8 9 8 9 8 8 8 7 7 7 6 9 12 15 15 14 9 8 8 9 10 6 8 5 4 4 5 6 6 7 4 4 5 7 3
10 10 10 8 8 8 9 9 9 9 9 9 9 9 10 8 9 9 8 9 9 10 10 10 9 8 8 7 7 8 7 12 11 12 13 16 17 13 11 10 9 9 10 11 12 12 12 11 12 12 11 10 9 11 10 9 8 8 7 8 7 7 8 9 9 7 7 8 9 11 9 6 7 5 4 4 7 7 6 6 6 5 2 1 3
9 8 9 9 10 9 10 10 9 9 9 10 10 10 9 10 10 8 8 7 7 7 6 7 8 8 7 7 7 8 6 14 15 15 18 20 21 10 9 10 10 10 10 10 10 10 11 11 10 10 11 10 13 18 13 9 9 9 9 8 7 7 8 9 10 9 9 10 9 9 8 6 8 6 4 4 3 3 3 2 2 2 1 4 9
10 10 9 9 10 10 10 10 9 9 10 10 10 10 10 10 9 7 8 8 9 9 9 9 8 9 9 9 9 8 6 13 16 14 15 18 13 8 9 8 9 11 11 11 10 10 9 10 9 10 10 10 15 19 17 14 9 10 9 8 7 6 9 7 12 16 18 18 17 16 16 15 16 16 15 13 9 6 5 3 6 4 3 7 8
9 8 9 9 9 8 8 9 10 10 10 11 11 9 8 7 9 8 10 9 9 9 8 8 7 8 10 10 10 9 7 11 16 15 17 18 12 10 9 9 10 10 8 7 7 7 8 11 9 10 10 9 16 19 19 14 9 10 9 8 8 8 8 6 5 8 15 16 18 18 17 16 17 17 17 17 14 10 8 10 5 6 7 7 9
7 9 8 6 6 7 7 8 9 10 10 10 9 9 9 9 8 8 8 8 8 7 7 7 6 5 6 8 8 8 7 9 16 16 18 17 13 8 9 8 10 8 9 8 6 6 7 10 13 10 9 11 19 19 20 15 9 10 10 7 8 9 10 8 7 6 5 5 7 8 10 13 11 9 9 16 19 13 9 8 5 8 8 7 7
5 4 4 6 6 7 7 8 8 9 9 8 7 8 7 7 8 8 6 6 6 6 6 6 7 5 5 6 7 7 8 7 11 16 17 19 18 10 9 10 11 10 8 9 8 6 7 7 11 15 13 14 17 19 19 20 11 8 7 8 8 11 10 6 6 7 6 6 6 5 7 5 5 7 7 7 10 11 10 8 8 7 8 8 7
5 5 6 6 7 7 6 7 8 7 7 8 8 7 7 7 7 7 7 6 6 6 7 6 6 5 5 5 6 6 7 9 10 16 18 18 18 13 9 9 9 11 11 10 9 10 9 8 6 13 17 16 17 18 19 20 17 9 9 9 11 10 3 4 7 9 6 6 6 5 6 5 6 6 7 8 8 8 8 8 6 8 8 8 8
5 5 6 6 6 6 7 6 7 8 7 8 8 7 5 6 7 7 6 6 8 7 7 6 6 5 5 5 5 6 6 10 8 15 19 19 20 17 9 9 10 11 10 9 9 8 9 8 8 12 18 17 17 17 19 18 20 10 10 15 14 13 9 6 4 4 5 5 5 6 6 6 7 7 7 7 8 8 7 8 8 9 9 9 10
5 5 5 6 5 6 6 7 7 7 8 8 9 8 7 8 7 8 8 8 8 8 7 7 7 6 5 4 5 5 6 7 11 10 16 19 20 20 16 10 14 10 11 11 10 9 7 7 7 12 16 17 17 18 17 19 16 11 17 17 17 18 13 7 5 5 5 6 6 7 7 7 7 8 7 7 7 7 8 8 9 9 9 8 9
5 5 5 5 5 5 6 6 7 7 9 9 8 9 8 7 8 7 8 8 8 7 6 6 6 6 7 6 5 6 6 6 10 14 13 20 20 21 19 15 15 10 8 8 8 8 8 7 8 13 14 15 17 17 18 17 11 15 17 19 19 17 9 7 6 7 7 7 7 8 8 7 7 7 7 8 8 9 10 9 9 9 9 9 9
6 5 5 5 5 5 5 6 7 7 8 9 9 8 8 8 8 6 7 7 7 7 6 6 7 7 6 7 6 5 5 5 5 10 14 15 20 19 18 16 15 14 9 6 7 6 8 11 12 13 13 15 16 17 15 17 20 18 19 19 15 7 7 7 7 6 7 8 9 8 8 8 8 9 8 8 8 6 5 6 7 7 7 7 7
6 6 6 6 6 7 7 6 6 7 7 7 8 8 10 9 8 7 7 7 7 7 7 7 6 6 6 6 6 6 5 5 6 6 8 10 13 18 19 18 17 16 11 6 8 10 12 12 14 14 13 12 10 8 7 8 15 19 19 16 9 7 6 6 7 7 8 7 8 8 8 6 6 7 7 5 5 7 7 7 6 6 6 7 6
6 6 7 6 6 7 8 7 6 6 6 6 6 6 6 7 7 7 7 7 7 6 7 7 7 7 7 7 6 6 6 6 6 7 7 8 9 10 13 12 15 14 9 6 7 6 7 8 7 9 8 11 13 11 10 10 9 9 8 8 8 7 7 7 7 8 8 8 7 7 6 6 5 3 4 6 7 6 6 6 5 6 5 5 7
8 7 8 7 7 7 7 9 9 6 6 7 7 6 5 6 8 8 9 9 9 8 8 8 9 9 8 7 7 6 7 7 7 8 8 9 8 8 9 9 10 9 9 7 6 6 6 6 8 6 6 6 7 6 7 6 7 6 6 6 7 7 7 8 8 7 7 7 7 6 6 2 4 5 5 5 5 4 4 5 6 6 5 4 4
7 8 7 7 7 6 7 7 7 7 7 6 6 7 9 8 8 6 5 6 8 10 9 8 7 6 6 7 8 7 6 9 11 9 9 10 10 9 9 9 8 8 10 10 6 5 5 6 5 6 6 7 7 7 6 6 6 6 6 6 5 5 5 5 7 8 7 7 8 7 7 4 5 4 5 4 5 5 4 5 5 5 3 4 9
8 8 7 7 7 7 6 7 6 7 7 7 7 4 4 6 5 7 7 7 8 7 7 7 7 7 6 6 7 9 10 9 9 16 17 17 17 16 13 12 11 8 9 16 7 5 6 6 5 6 6 6 6 6 6 6 6 5 5 6 6 5 6 6 7 7 6 7 7 7 7 5 5 4 5 6 4 4 5 6 4 4 5 6 7
7 7 7 7 8 7 7 7 6 6 7 7 7 7 6 5 8 8 6 8 9 10 10 9 10 11 8 6 7 12 8 7 14 17 19 19 19 18 16 15 14 14 12 9 6 7 6 7 6 6 7 7 7 8 6 6 7 6 5 5 6 7 7 6 6 5 6 7 6 6 6 6 6 5 6 5 5 4 4 4 4 5 6 7 7
9 8 8 7 8 7 7 7 7 7 7 7 7 8 7 7 4 5 11 10 10 11 10 11 12 14 14 10 7 5 10 10 13 17 19 20 20 19 18 16 16 15 15 13 7 7 7 8 8 8 7 7 8 7 6 6 6 6 6 6 7 7 7 7 6 6 6 6 6 6 6 6 6 6 5 5 4 4 5 5 5 5 5 5 7
10 9 9 9 9 9 9 8 8 8 9 9 8 8 8 8 8 6 4 6 10 11 9 8 8 11 11 12 11 7 5 6 11 15 17 19 19 19 19 18 17 17 17 11 8 8 7 8 8 7 7 8 7 6 6 6 6 6 7 7 7 7 7 7 6 7 7 7 7 6 6 6 6 5 4 3 5 5 5 5 5 5 5 6 7
10 9 10 10 10 9 9 9 9 9 8 8 9 9 8 8 8 8 8 6 4 3 4 7 8 8 8 9 8 9 8 9 10 12 15 16 18 18 18 13 18 20 16 10 8 8 7 7 7 7 7 6 6 6 6 7 6 6 7 7 7 6 6 6 6 7 6 6 6 6 6 6 4 5 5 4 4 5 5 5 5 5 6 7 8
8 9 13 11 9 9 9 8 8 8 8 9 9 9 9 8 8 9 9 9 9 8 7 6 7 9 6 6 8 9 9 10 11 12 13 14 16 16 16 9 10 10 11 8 8 7 8 8 7 7 7 7 7 7 7 5 6 6 7 6 6 6 5 6 6 7 7 6 6 6 6 6 6 5 5 6 5 5 6 6 6 6 7 7 7
9 8 9 11 9 7 8 8 8 8 9 8 8 8 8 8 8 7 7 7 7 7 4 6 4 7 11 8 10 11 11 12 12 14 14 15 16 17 10 8 8 8 8 7 8 8 7 7 6 6 6 6 6 6 6 6 6 6 6 6 6 6 6 6 6 6 6 6 7 7 6 5 5 5 5 5 6 7 6 6 6 7 7 7 6
9 9 9 8 8 7 7 7 7 7 6 7 7 7 7 6 6 7 6 7 7 7 7 5 5 2 2 2 8 13 15 13 13 13 14 14 18 12 7 8 8 8 8 8 8 8 8 7 7 6 6 6 6 6 6 6 6 6 6 6 6 6 6 6 7 6 7 7 7 7 7 7 6 6 6 6 6 6 6 6 6 7 7 9 8
9 9 8 8 8 8 7 8 8 9 8 8 7 8 8 8 8 8 8 8 8 8 7 6 6 8 9 7 5 6 10 13 14 11 11 13 11 8 7 6 7 7 7 7 7 7 7 7 7 7 7 6 6 6 7 7 7 6 6 6 6 7 9 9 9 8 7 6 6 6 7 6 6 6 6 6 7 6 6 6 6 6 6 8 7
7 10 12 13 9 8 8 8 7 8 7 8 8 8 7 8 8 8 7 7 7 7 6 7 8 8 8 7 6 6 8 7 8 8 8 8 7 7 7 7 6 6 6 6 6 7 6 7 6 6 6 6 6 6 6 6 6 6 6 6 7 6 8 6 6 6 6 6 6 6 6 6 6 6 6 6 6 6 6 6 6 7 7 7 7
8 7 10 13 7 9 7 8 8 8 7 9 8 8 8 8 8 8 8 8 8 8 8 9 9 8 7 8 8 8 9 9 8 7 7 7 7 7 7 8 8 8 7 7 7 6 7 6 6 5 5 5 5 5 5 5 5 5 6 6 7 8 8 7 7 7 7 7 7 6 7 6 6 5 5 6 6 6 7 7 7 7 7 7 6
6 7 8 8 8 8 7 8 8 9 8 8 8 8 8 7 7 6 7 8 7 7 7 7 7 6 8 9 11 11 8 8 8 7 7 7 7 7 7 7 6 6 6 6 5 5 5 5 5 5 5 4 3 3 3 2 1 3 4 5 5 6 5 5 5 5 5 5 5 6 6 6 6 6 7 7 6 6 6 6 5 5 6 6 6
6 6 7 7 7 7 7 6 5 6 7 6 8 8 6 6 8 8 7 8 7 7 7 6 6 6 7 13 14 15 8 6 6 6 6 6 6 6 5 4 2 2 2 2 2 3 3 3 3 3 3 3 3 3 3 2 2 1 1 1 3 3 3 4 4 4 5 5 5 6 6 6 6 6 6 5 6 6 6 6 6 6 5 6 6
6 5 5 4 6 7 7 7 7 7 7 7 6 5 5 7 7 6 7 6 7 7 7 7 6 5 6 9 11 12 7 7 6 7 6 6 6 5 4 3 2 2 2 2 3 4 5 5 4 4 3 2 2 2 2 2 1 2 2 4 4 4 4 4 4 5 5 5 5 5 5 5 5 5 5 5 6 6 6 6 6 6 6 5 5
7 5 4 4 4 4 4 5 6 5 5 5 6 4 5 5 6 6 6 6 7 6 7 6 6 6 6 5 6 5 6 5 5 6 5 4 3 3 2 1 1 2 3 4 4 5 4 4 2 1 1 0 0 0 0 1 1 3 4 5 6 5 5 5 5 4 5 5 5 5 5 5 5 5 5 6 5 6 6 6 6 6 6 5 5
7 7 6 5 4 4 4 4 5 5 5 5 5 5 4 6 6 6 6 6 5 6 6 6 6 6 6 6 6 6 5 5 5 5 4 4 3 3 3 2 2 2 3 4 3 4 3 2 1 0 1 1 0 0 1 1 0 1 3 4 5 5 5 4 4 4 4 4 4 4 4 5 5 5 6 6 6 6 6 6 7 5 6 6 6
7 6 5 5 4 3 4 4 4 6 6 6 6 6 5 5 5 6 5 5 5 6 6 6 6 6 6 6 5 5 5 5 4 4 5 4 4 3 2 3 3 3 2 2 3 3 3 2 1 0 1 1 1 1 0 0 0 0 0 0 2 3 2 3 3 4 5 4 5 5 5 5 5 5 6 6 5 6 6 5 5 6 7 7 7
7 7 7 5 5 4 3 4 5 5 5 5 5 6 5 5 5 5 4 5 6 5 6 6 6 6 6 6 5 5 4 4 4 4 4 3 3 2 2 2 3 3 3 4 3 3 2 2 1 0 0 0 0 0 0 0 0 1 1 2 2 0 0 1 2 3 3 3 4 4 5 5 5 5 5 5 5 6 6 7 7 7 7 6 6
6 6 6 5 6 5 5 5 6 5 5 5 5 4 4 4 5 5 5 6 6 6 6 6 5 5 5 5 4 5 5 4 3 4 3 3 3 2 2 2 2 2 2 2 2 2 2 1 1 1 1 2 2 2 2 2 2 2 2 2 2 2 1 2 1 1 2 3 3 4 4 5 5 5 5 6 6 6 7 7 6 5 6 6 6
7 6 6 6 6 5 4 5 3 5 5 5 6 6 4 5 5 5 5 5 6 5 5 6 5 4 5 5 5 4 4 4 4 4 3 3 3 2 2 2 1 1 1 1 1 2 2 2 2 2 2 3 2 3 3 3 3 3 3 2 2 5 4 3 2 2 3 3 3 3 3 4 5 5 5 5 6 6 6 5 5 5 5 5 6
7 7 7 7 6 6 4 4 5 5 4 5 6 5 5 5 5 5 5 5 5 5 4 4 5 4 5 5 5 4 5 5 4 4 4 3 3 3 3 3 2 2 2 2 1 1 2 2 2 2 2 3 3 3 3 3 3 4 4 4 7 8 6 5 5 4 3 4 4 4 5 5 4 5 4 6 5 6 6 6 6 6 6 6 6
7 7 7 7 7 6 6 6 6 6 6 6 6 6 6 5 5 5 5 5 5 4 4 4 4 4 4 4 4 4 4 4 4 4 4 4 4 3 3 3 3 2 1 1 1 1 1 2 3 4 4 4 4 4 4 4 4 4 6 8 9 9 7 6 4 6 6 5 4 4 5 5 5 5 4 5 5 5 7 6 6 6 6 6 6
Wind_Direction
195 187 172 176 175 183 185 181 184 180 181 182 183 186 183 181 180 172 141 155 148 154 159 162 157 156 156 162 161 156 150 148 146 141 137 140 142 140 141 138 132 134 130 126 127 129 127 125 127 127 133 120 123 111 97 101 98 99 104 99 89 68 86 103 120 134 40 93 133 155 156 133 202 183 215 220 226 225 218 231 237 242 242 237 255
204 197 186 173 175 180 181 179 178 178 182 178 182 182 177 175 170 151 170 165 160 161 163 159 156 159 162 167 169 157 150 146 147 144 145 144 145 146 145 141 137 138 135 134 135 132 130 126 127 130 133 121 114 103 111 110 112 105 97 103 95 76 69 102 121 138 178 132 78 103 154 153 185 187 185 204 230 220 226 249 256 224 222 224 231
199 200 199 186 181 177 175 180 176 180 181 179 181 178 173 168 164 166 168 165 169 170 169 165 166 165 167 167 163 159 154 151 152 150 153 153 152 157 154 149 146 146 143 143 141 136 129 129 132 129 124 109 107 114 117 117 114 110 105 97 100 95 71 90 114 122 158 204 166 164 179 191 178 199 188 198 208 210 226 251 246 243 206 204 225
191 191 196 196 185 177 177 176 179 183 186 182 181 176 170 168 167 170 167 161 169 173 168 166 162 165 165 166 166 162 157 156 155 158 159 158 157 157 156 153 151 150 147 146 146 143 139 130 132 132 126 116 119 119 119 119 116 111 103 100 111 112 96 84 76 125 140 143 192 180 181 173 218 192 192 197 198 227 217 233 238 225 235 233 225
190 190 186 189 190 185 181 176 183 187 188 180 180 172 171 167 169 171 166 170 173 167 171 166 166 167 170 172 171 170 169 162 158 159 161 162 160 158 156 151 151 151 152 151 149 143 139 133 139 139 129 119 123 125 133 124 120 114 112 116 123 122 112 115 101 94 134 158 165 181 152 167 188 190 190 195 246 225 233 224 230 230 233 229 222
193 186 187 186 192 191 187 183 188 188 184 181 179 174 171 171 171 175 174 174 175 179 175 177 177 178 177 178 175 172 168 167 164 165 163 159 158 156 152 150 150 150 149 145 140 138 136 139 139 135 133 135 140 139 136 130 123 127 131 134 132 131 137 138 130 126 128 181 173 192 184 176 226 210 210 193 196 238 276 273 269 239 223 256 246
195 191 191 193 195 198 192 193 186 185 184 181 176 175 175 173 172 176 173 174 177 180 182 180 184 179 180 177 176 172 171 169 163 160 158 158 158 154 150 145 142 140 140 136 135 134 134 135 139 140 139 141 144 146 140 136 139 143 153 151 146 139 143 150 136 152 172 198 238 207 216 238 191 231 244 185 198 184 215 267 277 258 221 220 261
197 195 191 199 205 202 197 191 186 183 179 175 177 178 175 175 176 172 170 177 180 181 181 184 183 181 180 178 176 171 169 167 164 160 161 162 161 157 151 145 142 139 135 135 135 135 138 142 141 142 142 144 142 144 147 150 144 154 161 151 147 146 157 163 169 174 190 209 209 226 240 231 255 215 170 136 206 264 222 211 238 253 271 262 251
198 195 196 205 211 201 192 190 184 176 173 174 175 178 176 172 172 173 177 179 179 180 178 176 174 182 180 174 173 174 172 173 169 164 161 165 162 156 153 151 147 141 137 133 134 136 139 138 137 137 136 136 140 142 150 150 153 161 173 158 161 160 169 176 179 179 196 200 232 227 228 246 233 209 228 208 212 224 205 153 230 232 252 273 278
196 198 204 211 205 195 188 185 182 174 177 178 178 175 173 173 173 175 178 179 178 177 174 175 180 182 177 178 177 175 179 176 177 172 168 164 164 158 153 151 148 145 142 139 137 140 141 139 141 141 141 142 145 153 160 163 166 167 174 168 172 167 176 180 184 188 188 206 220 200 231 246 234 218 218 225 209 169 166 203 242 264 288 288 286
201 201 212 208 198 191 186 185 176 183 182 177 176 173 174 171 174 177 180 180 180 181 177 180 185 185 183 181 181 183 183 183 178 174 168 164 157 158 156 157 152 148 148 148 149 147 141 142 144 148 145 138 145 152 160 167 169 169 174 176 178 172 174 184 198 190 193 211 206 205 225 244 243 213 224 218 197 190 213 209 228 243 252 284 294
203 209 211 197 195 193 188 177 181 183 175 181 174 173 168 170 176 177 176 179 181 175 184 187 184 182 182 183 184 184 186 187 182 176 168 168 165 159 154 149 153 155 154 151 149 149 150 147 150 155 160 158 156 159 163 172 174 174 174 175 187 191 187 181 189 198 201 202 210 223 219 237 243 212 231 197 222 217 219 205 212 217 240 245 250
204 210 205 196 196 191 182 181 182 181 182 173 170 167 171 174 176 176 180 176 167 178 184 179 184 180 180 182 186 187 190 187 187 179 167 165 158 151 158 154 154 158 158 158 156 152 149 149 151 160 161 157 155 164 166 175 186 193 197 198 201 203 210 215 211 200 187 192 211 233 222 230 231 234 207 208 178 211 212 209 208 213 217 235 241
203 209 201 198 193 185 183 182 183 182 172 169 166 170 175 181 176 175 172 173 178 179 181 188 187 189 188 186 190 190 186 187 181 169 170 162 161 151 154 161 162 163 162 159 155 156 156 155 156 161 167 166 169 166 169 172 176 188 198 202 209 220 224 227 226 219 195 199 209 228 238 202 232 221 213 186 186 215 203 227 206 219 227 237 238
203 204 201 197 185 184 183 183 181 175 171 168 170 175 177 173 171 174 174 177 177 180 183 187 192 191 193 189 184 182 184 181 167 163 163 164 156 155 164 158 155 155 157 158 159 158 160 160 163 165 166 172 177 172 166 172 173 185 194 205 209 210 217 226 225 217 210 212 219 230 240 223 232 223 212 202 201 209 198 203 195 206 208 303 304
207 200 201 192 191 187 181 181 177 170 170 171 174 176 174 175 174 172 170 174 177 174 182 183 187 190 188 181 178 185 182 177 176 168 167 170 167 156 155 156 157 160 157 158 158 162 163 164 161 163 168 173 179 176 170 162 172 183 198 207 210 214 225 227 223 218 216 221 224 228 233 228 228 224 214 199 187 167 144 94 116 136 222 288 263
209 203 199 194 193 185 180 174 173 172 171 172 178 177 174 175 175 166 168 173 176 181 184 185 185 184 184 183 182 185 180 183 178 169 173 171 159 160 160 159 160 160 164 165 164 160 164 166 164 161 166 173 177 178 176 170 175 189 198 204 208 211 234 232 228 227 228 230 232 236 238 237 239 241 242 225 178 161 131 157 220 167 193 254 268
209 201 202 197 189 180 177 171 171 173 174 180 180 178 173 169 172 170 172 174 181 185 183 180 184 185 185 186 185 182 181 185 178 172 172 171 159 163 166 162 166 164 155 155 149 156 163 168 167 165 167 174 177 181 181 175 183 193 197 203 208 221 238 229 219 229 234 237 239 241 242 244 244 244 242 245 222 175 164 217 209 156 222 225 258
202 203 202 185 177 174 170 169 172 175 180 181 173 168 171 169 166 169 175 173 177 170 171 173 170 174 183 184 177 172 168 184 182 176 174 169 159 168 168 166 161 165 159 155 150 150 166 179 182 178 174 169 179 186 187 183 185 194 198 195 215 225 234 221 216 225 225 231 243 245 251 248 248 243 243 245 240 217 195 208 166 183 218 227 240
197 181 161 163 164 164 169 172 173 172 174 165 163 165 156 151 160 164 163 161 157 157 160 164 167 172 164 167 179 172 166 180 186 181 178 175 170 166 171 166 174 166 164 162 157 166 177 180 194 195 183 180 186 191 196 197 191 193 183 199 211 230 232 213 214 219 227 220 237 230 242 245 247 253 248 243 245 241 233 210 194 198 218 234 230
169 168 162 161 165 167 165 164 164 167 163 162 158 151 154 153 149 156 155 152 146 149 157 156 160 156 157 165 166 170 172 177 188 185 184 179 173 172 180 181 167 168 171 171 175 174 177 187 186 198 197 195 195 199 202 207 205 194 197 208 213 225 160 182 221 216 223 227 234 233 239 234 233 233 236 236 237 238 241 240 208 201 209 223 231
159 159 158 158 155 155 157 154 153 152 146 138 138 140 140 140 150 151 148 149 152 151 153 153 155 153 155 163 169 172 174 181 182 189 188 182 179 182 180 189 177 169 172 178 179 181 181 180 181 197 203 204 205 207 211 214 217 210 210 220 230 233 229 218 190 194 209 216 220 230 226 228 233 230 232 232 231 228 222 225 223 216 216 214 215
145 142 139 144 151 152 151 146 143 140 142 145 143 147 145 143 147 147 147 149 152 153 157 155 153 154 156 166 167 167 173 184 188 191 194 191 186 188 188 182 182 180 176 182 184 181 179 180 180 185 202 211 214 216 216 218 220 223 225 227 232 236 237 227 203 202 212 219 225 233 229 225 232 233 227 229 225 214 213 214 219 221 227 228 229
130 131 138 141 139 141 143 140 137 142 144 144 144 144 148 148 150 157 155 155 157 156 157 152 154 161 170 176 181 183 183 183 194 196 198 198 193 192 191 187 184 183 185 183 178 180 174 177 177 184 196 208 217 224 227 226 223 224 229 233 236 238 235 230 208 210 215 222 229 236 236 226 227 234 226 220 216 209 212 214 217 221 225 233 235
128 128 128 131 133 133 132 138 142 145 148 147 146 148 147 149 151 157 152 156 157 160 164 164 172 176 177 184 184 182 183 188 197 205 206 207 203 195 193 188 188 182 187 182 172 174 172 171 175 189 198 208 214 222 228 231 231 232 232 235 235 231 229 227 223 205 217 223 230 237 239 230 226 231 226 219 217 206 210 224 222 225 229 240 243
136 138 137 139 143 142 138 138 142 145 147 151 152 156 156 159 156 157 158 162 163 164 165 170 176 177 186 184 181 178 176 178 194 200 205 206 208 203 195 189 191 195 191 177 171 170 175 181 188 196 202 205 208 210 211 216 226 231 234 236 233 227 222 223 228 225 231 230 232 238 241 233 228 227 219 203 189 202 203 215 213 227 214 230 249
141 143 144 143 145 148 144 146 141 140 141 137 138 144 150 151 151 156 162 162 166 167 169 173 179 183 188 186 174 172 179 186 191 194 197 195 201 196 191 193 194 196 198 196 190 188 188 186 192 201 201 204 208 209 212 214 215 221 220 222 224 222 220 221 225 233 242 248 251 249 246 232 220 188 189 190 206 207 196 207 209 225 209 223 230
153 154 151 150 153 153 149 145 144 146 147 145 142 142 150 155 160 168 170 173 170 179 178 183 188 188 185 177 173 174 189 194 197 194 194 194 195 193 190 186 189 194 198 199 195 187 183 198 209 215 212 216 215 213 216 209 209 206 210 207 215 219 223 229 235 238 245 250 260 260 257 193 196 205 202 202 211 195 166 190 205 225 206 189 229
150 150 151 149 154 153 148 152 150 148 146 143 153 163 164 167 171 178 192 179 179 178 180 185 188 188 180 178 173 183 189 206 211 193 195 194 190 189 193 193 187 190 191 182 163 164 166 186 190 195 199 204 207 212 212 212 211 205 204 202 202 207 213 215 230 239 245 249 254 256 261 227 221 184 202 206 211 203 180 196 213 206 217 183 221
152 158 157 154 154 149 149 152 151 151 150 149 145 141 160 162 162 167 177 181 183 184 177 183 181 175 183 196 187 189 199 211 190 193 199 199 200 198 197 194 194 190 190 197 180 169 191 195 199 196 202 201 208 211 209 204 206 204 206 212 210 204 215 222 228 238 237 242 249 253 256 243 229 196 200 213 217 192 190 193 205 184 196 223 236
159 160 160 164 162 155 154 153 156 152 154 150 149 148 144 156 170 172 158 172 173 182 186 185 176 179 181 191 202 207 212 198 188 195 200 202 201 201 198 197 193 193 183 181 187 192 200 209 211 210 216 216 223 223 214 209 211 204 200 194 210 216 225 223 229 230 235 240 243 245 248 245 248 216 213 212 209 193 165 190 171 198 211 221 238
166 167 163 159 159 157 156 156 155 156 158 154 154 151 150 136 94 145 167 169 172 178 186 186 185 183 190 191 187 202 207 207 187 189 196 200 201 201 199 195 194 189 189 180 193 211 206 214 217 218 212 217 228 220 210 208 204 199 191 195 209 205 207 222 219 218 229 235 240 241 245 250 252 251 233 211 190 187 178 192 193 202 221 228 235
162 162 161 160 162 160 161 163 165 166 165 162 160 159 159 155 148 118 92 145 165 179 157 143 152 170 178 180 178 161 149 162 180 185 190 196 198 198 197 196 194 191 188 197 205 211 208 210 216 214 204 220 214 208 213 205 201 198 193 195 200 202 199 204 204 209 218 223 228 235 237 246 247 251 236 196 181 199 194 199 203 203 208 227 242
164 163 165 166 164 167 169 170 169 172 171 166 163 163 163 162 157 147 143 133 95 93 135 159 157 154 144 144 146 154 156 162 169 176 187 191 194 193 192 196 201 203 202 204 200 207 199 203 210 209 211 212 210 208 213 211 204 198 199 200 194 188 194 191 195 211 214 220 226 232 232 238 239 237 236 208 198 192 200 208 196 205 218 221 232
161 163 162 164 171 171 170 171 169 167 169 167 165 163 163 162 153 158 163 161 168 176 182 184 187 177 178 172 172 166 172 175 178 178 180 183 187 187 186 185 196 203 206 200 199 198 196 202 204 205 197 206 206 201 208 204 198 195 195 194 191 189 187 189 197 202 207 211 216 221 223 226 227 222 216 218 202 202 209 208 210 208 221 229 232
159 160 165 169 168 170 169 170 169 169 170 171 166 160 154 152 157 166 165 165 165 167 174 181 183 197 195 194 195 195 187 184 184 183 180 180 179 176 170 185 189 198 199 196 194 200 195 200 196 201 194 198 192 200 201 202 204 194 182 175 186 187 190 196 199 200 206 205 212 214 217 220 213 217 216 217 210 216 217 211 215 218 222 228 226
160 160 166 171 168 162 163 161 165 164 160 155 152 151 148 148 151 154 161 167 169 170 162 141 114 107 125 186 202 197 193 187 184 184 183 182 182 181 177 182 188 188 196 199 195 196 202 205 200 202 201 202 200 197 198 202 198 198 206 208 204 209 207 197 199 195 200 204 209 207 209 214 213 211 201 216 217 211 216 213 218 221 219 233 238
162 163 166 163 160 156 155 163 161 157 156 157 156 153 153 155 158 160 163 168 166 159 156 160 164 171 174 190 174 170 188 186 182 182 186 189 191 190 182 190 188 194 199 199 201 199 205 204 202 203 205 202 204 202 203 209 207 207 206 209 210 209 214 216 217 208 204 202 204 203 202 206 205 209 204 209 215 215 219 214 214 224 233 235 228
158 161 160 160 161 159 159 155 157 157 158 159 162 158 162 158 156 157 161 158 159 158 159 166 176 184 181 165 159 151 136 162 180 190 187 189 192 190 186 191 197 199 200 199 200 202 205 205 204 199 197 198 196 198 198 204 202 206 202 202 209 208 213 213 211 210 212 211 209 202 200 207 205 207 201 205 217 211 218 216 215 217 223 226 224
152 153 162 161 154 157 155 159 158 159 165 162 168 164 158 165 167 165 161 161 167 169 170 179 186 189 171 164 168 167 175 184 186 185 185 189 191 191 190 194 199 201 201 202 202 204 203 205 198 201 198 194 191 195 197 199 203 203 201 206 208 213 212 210 212 209 213 211 205 200 198 204 201 196 202 205 212 213 214 219 220 216 220 223 222
138 146 157 163 155 150 150 157 166 169 169 170 166 169 175 169 164 160 162 167 167 166 177 179 181 172 169 177 179 180 179 186 183 188 192 191 192 195 200 200 199 201 201 203 204 199 200 199 197 194 191 185 177 170 168 153 184 208 220 215 214 220 215 214 210 214 211 202 199 195 201 198 194 189 206 212 208 208 215 214 216 216 214 215 210
137 148 156 157 152 152 157 166 166 162 160 159 164 169 162 163 163 166 168 169 171 171 165 169 166 164 169 173 181 186 179 188 179 187 192 194 198 208 209 213 216 205 204 198 178 158 134 129 119 118 128 117 120 124 114 134 144 148 206 259 236 225 215 215 205 202 199 203 201 201 201 196 197 201 205 198 198 203 203 208 212 212 209 205 201
130 143 148 148 151 163 171 163 154 154 158 162 166 155 153 155 163 163 165 166 168 166 163 158 157 159 165 175 179 183 165 175 175 181 180 184 184 182 181 181 153 113 127 123 100 116 120 124 116 107 119 125 134 154 172 204 201 224 240 239 241 238 237 228 215 211 202 202 206 202 197 196 196 198 199 197 195 196 202 204 208 207 206 196 193
140 137 135 133 130 122 133 149 153 152 152 141 135 141 148 148 148 153 157 160 164 164 160 154 154 155 165 172 174 152 160 159 152 154 154 145 149 147 146 131 114 86 87 96 100 99 107 109 112 80 67 81 90 90 118 200 223 240 249 246 248 244 242 233 226 219 207 206 208 203 202 201 201 195 195 195 185 193 202 199 204 203 197 195 189
129 129 130 131 130 132 135 128 130 129 125 124 125 129 136 144 151 150 149 154 151 149 148 148 151 154 160 168 168 160 158 151 149 139 144 144 139 149 148 127 130 130 110 105 104 104 103 117 115 110 5 332 340 263 248 290 272 222 217 215 233 240 233 220 223 213 194 193 209 208 209 199 203 200 200 197 194 196 202 202 201 192 190 190 190
120 117 119 120 124 128 137 129 123 125 131 132 135 135 135 135 138 142 144 140 142 139 137 141 148 153 156 156 152 142 142 132 137 138 133 132 132 126 103 104 91 100 110 115 105 111 107 107 111 120 186 256 281 280 155 129 90 69 42 205 212 219 217 204 195 180 190 190 201 207 210 206 207 203 199 192 192 191 202 204 198 197 196 194 199
113 118 118 123 127 128 120 123 121 126 122 125 131 136 135 132 125 121 122 127 127 125 125 131 134 141 144 150 149 153 142 135 136 133 143 136 127 122 95 83 85 76 65 70 80 88 90 82 85 104 145 99 90 97 61 22 265 254 241 258 277 252 108 148 153 166 186 192 187 191 200 197 201 198 200 188 187 198 198 204 199 199 196 193 192
106 104 108 114 117 119 119 115 116 115 112 118 117 117 113 111 109 106 107 111 111 113 113 112 117 124 123 128 131 134 134 137 134 130 130 137 133 113 97 88 90 83 82 85 95 105 116 141 157 165 194 222 223 234 240 243 247 244 247 247 229 219 207 159 143 138 163 170 177 192 197 203 202 198 196 194 198 194 197 210 203 201 190 189 191
95 98 101 99 99 98 103 106 103 101 107 105 102 95 95 94 93 93 95 97 103 105 117 121 121 119 120 127 125 126 125 125 129 128 129 138 132 129 132 127 115 99 107 134 146 155 152 151 157 171 192 210 210 218 228 224 227 235 236 242 241 230 192 161 163 201 177 159 180 177 189 195 199 201 195 195 201 198 204 200 194 195 189 187 184
90 94 97 95 94 92 92 91 91 94 90 92 96 96 90 91 89 94 100 99 95 100 105 116 124 131 130 126 125 132 130 136 138 139 138 134 134 138 134 146 154 175 179 201 217 182 179 175 183 198 200 210 213 212 212 214 219 222 226 230 240 244 227 204 198 196 173 164 172 182 180 193 193 194 192 192 190 191 195 200 196 190 187 183 193
88 86 87 88 92 93 91 92 91 86 89 93 95 99 98 95 100 104 104 107 116 115 112 115 116 115 119 131 133 134 134 138 139 142 144 143 150 148 155 156 179 197 225 239 258 260 210 197 197 202 207 210 219 221 224 226 228 225 229 236 242 242 223 196 198 213 198 181 168 169 177 189 192 198 198 192 184 189 201 194 192 190 190 192 190